[[{"header":{"parameterUnit":"m.s-1","parameterCategory":1,"la1":30.2992,"la2":30.254,"lo1":-89.0895,"lo2":-89.0443,"dy":0.0025,"dx":0.0025,"nx":19,"ny":19,"refTime":"2026-04-28T03:00:00:Z","depth":0,"parameterNumber":2,"parameterNumberName":"U-component_of_WINDS"},"data":[0,0,0,-2.4301,-2.4303,-2.4409,-2.4409,-2.4539,-2.454,0,0,0,0,0,0,0,0,0,0,0,-2.4266,-2.4267,-2.4301,-2.4303,-2.4409,-2.4409,-2.4539,-2.454,0,0,0,0,0,0,0,0,0,0,0,-2.4266,-2.4266,-2.4267,-2.4304,-2.4408,-2.4409,-2.4538,-2.4461,0,0,0,0,0,0,0,0,0,0,-2.4359,-2.4323,-2.4266,-2.4267,-2.4304,-2.4408,-2.4409,-2.4457,-2.4466,-2.4489,0,-2.4507,0,-2.4526,-2.4548,-2.4549,0,0,0,-2.4306,-2.4316,-2.4348,-2.4268,-2.4305,-2.4408,-2.4362,-2.4462,-2.4472,-2.45,-2.4509,-2.4514,-2.4528,-2.4549,-2.455,-2.467,-2.4671,0,0,-2.43,-2.4283,-2.4341,-2.4354,-2.4336,-2.4359,-2.4365,-2.4468,-2.4477,-2.451,-2.4518,-2.453,-2.455,-2.4551,-2.467,-2.4671,0,0,0,-2.4282,-2.4279,-2.4308,-2.4348,-2.4368,-2.4361,-2.4369,-2.4473,-2.4484,-2.4519,-2.4532,-2.4551,-2.4552,-2.467,-2.467,-2.4673,0,0,0,-2.4278,-2.4268,-2.4305,-2.4296,-2.4366,-2.4421,-2.4372,-2.4477,-2.4489,-2.4531,-2.4551,-2.4553,-2.4669,-2.467,-2.4672,-2.4677,0,0,0,-2.426,-2.4266,-2.428,-2.4295,-2.4339,-2.442,-2.4437,-2.448,-2.4496,-2.4549,-2.4554,-2.4669,-2.467,-2.4671,-2.4675,-2.4702,0,0,0,-2.4236,-2.4281,-2.4279,-2.4335,-2.4338,-2.4421,-2.4437,-2.45,-2.4545,-2.4551,-2.4669,-2.467,-2.4671,-2.4674,-2.4701,-2.4721,-2.4728,0,0,-2.4283,-2.4286,-2.432,-2.4322,-2.44,-2.4406,-2.4486,-2.4544,-2.4566,-2.4635,-2.4638,-2.4672,-2.4675,-2.4702,-2.4775,-2.478,0,0,0,-2.4329,-2.4353,-2.4378,-2.442,-2.4465,-2.4505,-2.4553,-2.4575,-2.4634,-2.4597,-2.4691,-2.4693,-2.471,-2.472,-2.4724,-2.4739,-2.4675,-2.4674,-2.4674,-2.437,-2.4394,-2.4452,-2.449,-2.453,-2.458,-2.4615,-2.4653,-2.4667,-2.4689,-2.4708,-2.475,-2.4761,-2.4764,-2.478,-2.4722,-2.4722,-2.4722,-2.4722,-2.444,-2.4477,-2.4494,-2.4556,-2.4582,-2.4635,-2.4685,-2.4693,-2.4746,-2.4737,-2.4753,-2.4739,-2.4769,-2.4784,-2.4723,-2.4723,-2.4723,-2.4723,-2.4723,-2.4468,-2.449,-2.4516,-2.4579,-2.4625,-2.4662,-2.4712,-2.4735,-2.4757,-2.4773,-2.4796,-2.4796,-2.4797,-2.4782,-2.4782,-2.4783,-2.4783,-2.4783,-2.4783,-2.4486,-2.4515,-2.4554,-2.4606,-2.4636,-2.4678,-2.4729,-2.4759,-2.4799,-2.4811,-2.4812,-2.4822,-2.4768,-2.4753,-2.4785,-2.4785,-2.4784,-2.4784,-2.4784,-2.4546,-2.4536,-2.4595,-2.4625,-2.4688,-2.4732,-2.4761,-2.4821,-2.485,-2.4874,-2.4882,-2.4838,-2.4843,-2.484,-2.4827,-2.4877,-2.4877,-2.4877,-2.4877,-2.4568,-2.4573,-2.4639,-2.4685,-2.4733,-2.4765,-2.4832,-2.4872,-2.4913,-2.4932,-2.4929,-2.4915,-2.491,-2.4918,-2.4913,-2.4901,-2.4969,-2.4969,-2.4969,-2.4606,-2.4616,-2.4668,-2.4706,-2.4758,-2.4801,-2.4865,-2.4918,-2.4962,-2.4973,-2.4947,-2.4944,-2.4922,-2.4913,-2.4922,-2.4913,-2.4893,0,0]},{"header":{"parameterUnit":"m.s-1","parameterCategory":1,"la1":30.2992,"la2":30.254,"lo1":-89.0895,"lo2":-89.0443,"dy":0.0025,"dx":0.0025,"nx":19,"ny":19,"refTime":"2026-04-28T03:00:00:Z","depth":0,"parameterNumber":3,"parameterNumberName":"V-component_of_WINDS"},"data":[0,0,0,3.0574,3.0575,3.0617,3.0617,3.0667,3.0667,0,0,0,0,0,0,0,0,0,0,0,3.0561,3.0561,3.0574,3.0575,3.0617,3.0617,3.0667,3.0667,0,0,0,0,0,0,0,0,0,0,0,3.056,3.0561,3.0561,3.0575,3.0617,3.0617,3.0666,3.0636,0,0,0,0,0,0,0,0,0,0,3.0596,3.0583,3.0561,3.0561,3.0575,3.0617,3.0617,3.0635,3.0638,3.0647,0,3.0655,0,3.0662,3.067,3.067,0,0,0,3.0575,3.058,3.0592,3.0561,3.0576,3.0616,3.0598,3.0636,3.064,3.0651,3.0656,3.0658,3.0663,3.0671,3.0671,3.0723,3.0723,0,0,3.0573,3.0567,3.059,3.0595,3.0589,3.0597,3.0599,3.0639,3.0643,3.0656,3.0659,3.0664,3.0671,3.0671,3.0723,3.0723,0,0,0,3.0566,3.0565,3.0577,3.0593,3.0601,3.0598,3.0601,3.0641,3.0646,3.066,3.0664,3.0671,3.0672,3.0723,3.0723,3.0729,0,0,0,3.0565,3.0561,3.0576,3.0573,3.06,3.0622,3.0602,3.0643,3.0648,3.0664,3.0671,3.0672,3.0722,3.0723,3.0728,3.0732,0,0,0,3.0558,3.0561,3.0567,3.0572,3.059,3.0621,3.0628,3.0644,3.065,3.0671,3.0672,3.0722,3.0723,3.0728,3.0731,3.0744,0,0,0,3.0549,3.057,3.0567,3.0592,3.059,3.0625,3.0628,3.0654,3.0672,3.0671,3.0722,3.0723,3.0727,3.0731,3.0744,3.0754,3.0758,0,0,3.0572,3.0573,3.0588,3.0586,3.0621,3.0619,3.0654,3.0675,3.0682,3.0709,3.071,3.0728,3.0731,3.0744,3.0783,3.0786,0,0,0,3.0594,3.0605,3.0615,3.0633,3.0651,3.0666,3.0683,3.0691,3.0714,3.0695,3.0737,3.0739,3.0747,3.0752,3.0755,3.0762,3.0725,3.0725,3.0725,3.0618,3.0627,3.0653,3.0667,3.0684,3.0702,3.0716,3.073,3.0732,3.0742,3.075,3.0773,3.0779,3.0781,3.0788,3.0757,3.0757,3.0757,3.0757,3.0653,3.067,3.0675,3.0702,3.0711,3.0733,3.0751,3.0753,3.0774,3.0767,3.0775,3.0766,3.0784,3.0791,3.0757,3.0757,3.0757,3.0757,3.0757,3.0669,3.0679,3.0689,3.0717,3.0736,3.0749,3.077,3.0777,3.0784,3.0791,3.08,3.08,3.08,3.0795,3.0795,3.0795,3.0795,3.0795,3.0795,3.0682,3.0694,3.0711,3.0733,3.0746,3.0763,3.0782,3.0794,3.0809,3.0812,3.0812,3.0814,3.0785,3.0777,3.0797,3.0796,3.0796,3.0796,3.0796,3.0713,3.0708,3.0735,3.0748,3.0774,3.0793,3.0802,3.0827,3.0838,3.0848,3.0848,3.0826,3.0826,3.0824,3.0817,3.0847,3.0847,3.0847,3.0847,3.0727,3.0729,3.0758,3.0779,3.0799,3.081,3.084,3.0855,3.0869,3.0876,3.0873,3.0865,3.0863,3.0865,3.0862,3.0856,3.0894,3.0894,3.0894,3.0747,3.0751,3.0775,3.0791,3.0812,3.0829,3.0858,3.088,3.0894,3.0896,3.0882,3.088,3.0868,3.0863,3.0864,3.0859,3.0848,0,0]}]]